Salt Lake City, UT

1:55 AM MST on January 23, 2018 (GMT -0700)
Salt Lake City International

Weather History for KSLC - July, 2013

Change the Weather History Date:

Tuesday, July 30, 2013

  Actual Average Record
Temperature  
Mean Temperature 83 °F 80 °F  
Max Temperature 95 °F 94 °F 103 °F (1934)
Min Temperature 71 °F 66 °F 48 °F (1950)
Degree Days  
Heating Degree Days 0 0  
Month to date heating degree days 0 0  
Since 1 June heating degree days 4 46  
Since 1 July heating degree days 0 0  
Cooling Degree Days 18 15  
Month to date cooling degree days 576 411  
Year to date cooling degree days 969 648  
Since 1 June cooling degree days 899 598  
Growing Degree Days 33 (Base 50)    
Moisture  
Dew Point 44 °F    
Average Humidity 32    
Maximum Humidity 47    
Minimum Humidity 17    
Precipitation  
Precipitation 0.01 in 0.02 in 1.65 in (1945)
Month to date precipitation 1.16 0.59  
Year to date precipitation 7.28 9.80  
Snow  
Snow 0.00 in 0.00 in - ()
Month to date snowfall 0.0 0.0  
Since 1 July snowfall 0.0 0.0  
Snow Depth 0.00 in    
Sea Level Pressure  
Sea Level Pressure 29.97 in    
Wind  
Wind Speed 10 mph (SSE)    
Max Wind Speed 18 mph    
Max Gust Speed 26 mph    
Visibility 10 miles    
Events Rain    
T = Trace of Precipitation, MM = Missing Value Source: NWS Daily Summary

Daily Weather History Graph

Daily Weather History Graph

Search for Another Location

Airport or City:

Trip Planner

Search our weather history database for the weather conditions in past years. The results will help you decide how hot, cold, wet, or windy it might be!

Date:

Astronomy

Jul. 30, 2013 Rise Set
Actual Time 6:22 AM MDT 8:45 PM MDT
Civil Twilight 5:51 AM MDT 9:16 PM MDT
Nautical Twilight 5:13 AM MDT 9:54 PM MDT
Astronomical Twilight 4:31 AM MDT 10:36 PM MDT
Moon 12:43 AM MDT (7/30) 3:08 PM MDT (7/30)
Length of Visible Light 15h 24m
Length of Day
14h 22m
Last Quarter, 40% of the Moon is Illuminated
Jul 30
Last Quarter
Aug 6
New
Aug 14
First Quarter
Aug 20
Full
Aug 28
Last Quarter

Hourly Weather History & Observations

Time (MDT) Temp. Dew Point Humidity Pressure Visibility Wind Dir Wind Speed Gust Speed Precip Events Conditions
12:53 AM 75.0 °F 48.0 °F 38% 29.93 in 10.0 mi SE 10.4 mph - N/A   Overcast
1:53 AM 75.9 °F 48.0 °F 37% 29.94 in 10.0 mi SE 12.7 mph - N/A   Mostly Cloudy
2:53 AM 75.0 °F 50.0 °F 41% 29.94 in 10.0 mi SSE 13.8 mph - N/A   Mostly Cloudy
3:53 AM 73.9 °F 48.9 °F 41% 29.95 in 10.0 mi SE 13.8 mph - N/A   Scattered Clouds
4:53 AM 72.0 °F 48.0 °F 43% 29.96 in 10.0 mi South 6.9 mph - N/A   Scattered Clouds
5:53 AM 71.1 °F 50.0 °F 47% 29.98 in 10.0 mi South 8.1 mph - N/A   Scattered Clouds
6:53 AM 71.1 °F 48.9 °F 45% 29.99 in 10.0 mi SE 10.4 mph - N/A   Scattered Clouds
7:53 AM 73.9 °F 50.0 °F 43% 30.01 in 10.0 mi SSE 13.8 mph - N/A   Scattered Clouds
8:53 AM 78.1 °F 48.9 °F 36% 30.02 in 10.0 mi SE 13.8 mph - N/A   Scattered Clouds
9:53 AM 82.0 °F 50.0 °F 33% 30.03 in 10.0 mi South 10.4 mph - N/A   Scattered Clouds
10:53 AM 86.0 °F 44.1 °F 23% 30.03 in 10.0 mi South 15.0 mph - N/A   Scattered Clouds
11:53 AM 90.0 °F 43.0 °F 19% 30.02 in 10.0 mi South 13.8 mph 21.9 mph N/A   Scattered Clouds
12:53 PM 89.1 °F 42.1 °F 19% 30.01 in 10.0 mi South 11.5 mph - N/A   Scattered Clouds
1:53 PM 93.0 °F 42.1 °F 17% 29.99 in 10.0 mi SE 11.5 mph - N/A   Scattered Clouds
2:53 PM 89.1 °F 45.0 °F 22% 29.99 in 10.0 mi Calm Calm - 0.00 in Rain Light Rain
3:53 PM 91.9 °F 43.0 °F 18% 29.96 in 10.0 mi Variable 3.5 mph - 0.01 in   Mostly Cloudy
4:53 PM 93.9 °F 41.0 °F 16% 29.95 in 10.0 mi NNW 5.8 mph - N/A   Mostly Cloudy
5:53 PM 95.0 °F 39.0 °F 14% 29.93 in 10.0 mi North 5.8 mph - N/A   Scattered Clouds
6:53 PM 93.9 °F 37.9 °F 14% 29.92 in 10.0 mi NE 3.5 mph - N/A   Scattered Clouds
7:53 PM 93.0 °F 37.0 °F 14% 29.91 in 10.0 mi Calm Calm - N/A   Scattered Clouds
8:53 PM 90.0 °F 41.0 °F 18% 29.91 in 10.0 mi ENE 4.6 mph - N/A   Partly Cloudy
9:53 PM 84.0 °F 42.1 °F 23% 29.94 in 10.0 mi SSE 4.6 mph - N/A   Partly Cloudy
10:53 PM 78.1 °F 39.9 °F 25% 29.95 in 10.0 mi SE 5.8 mph - N/A   Partly Cloudy
11:53 PM 78.1 °F 37.9 °F 24% 29.95 in 10.0 mi SE 9.2 mph - N/A   Partly Cloudy